Rome, OR

6:40 AM MDT on April 25, 2015 (GMT -0600)
Mountain Home Air Force Base | | Change Station
CLOSE
Current Station
Airport
Location: Mountain Home,
Elevation: 2995 ft
Nearby Weather Stations

Elev 2995 ft 43.04 °N, 115.87 °W | Updated 7 minutes ago

Partly Cloudy
Partly Cloudy
37 °F
Feels Like 33 °F
N
6
Wind Variable Wind from WSW

Today
High -- | Low -- °F
--% Chance of Precip.
Yesterday
High -- | Low -- °F
Precip. -- in
6:53 AM 8:43 PM
Waxing Crescent, 45% visible
Pressure 29.80 in
Visibility 10.0 miles
Clouds Mostly Cloudy 7500 ft
Overcast 9000 ft
Windchill 33 °F
Dew Point 32 °F
Humidity 81%
Rainfall 0.00 in
Snow Depth Not available.
UV 0 out of 12
Pollen 8.90 out of 12
Air Quality Not available.
Flu Activity Sporadic
SPECI KMUO 251233Z AUTO 25005KT 10SM BKN075 OVC090 03/00 A2980 RMK AO2 $

More Conditions Fewer Conditions

Pressure 29.80 in
Visibility 10.0 miles
Clouds Mostly Cloudy 7500 ft
Overcast 9000 ft
Windchill 33 °F
Dew Point 32 °F
Humidity 81%
Rainfall 0.00 in
Snow Depth Not available.
UV 0 out of 12
Pollen 8.90 out of 12
Air Quality Not available.
Flu Activity Sporadic
SPECI KMUO 251233Z AUTO 25005KT 10SM BKN075 OVC090 03/00 A2980 RMK AO2 $

More Conditions Fewer Conditions

10-Day Weather Forecast

Almanac

Astronomy

Apr. 25, 2015 Rise Set
Actual Time
Civil Twilight
Nautical Twilight
Astronomical Twilight
Moon
Length of Visible Light
Length of Day
Tomorrow will be .
, % of the Moon is Illuminated

Today's Extremes

State Highs State Lows

Community

WunderPhotos

Upload Photos

1,816,649 photos uploaded!

WunderBlogs® & News

Nearby

Air Quality

  Air Quality AQ Index Pollutant
Not available.

Snow Depth

Station Depth Elevation

Earthquake Activity

City Distance Mag. Time & Date
Minimum magnitude displayed is 2.5.

Coastal Water Temperatures

Place Temperature

Stations

Nearby Weather Stations

Station Location Temp. Windchill Dew Point Humidity Wind Precip. Elev Updated Type